Location: Dompnac
(44.5644°N, 4.1026°E)
Time: 14:03:37
(UTC+00:00)

Cosmos 2026 Rocket - Pass Details

Date: 19 January 2021
Orbit: 940 x 1000 km, 82.9° (Epoch: 28 February)

Event Time Altitude Azimuth Distance (km) Brightness Sun altitude
Rises 17:24:26 0° 132° (SE) 3,603 6.7 -8.9°
Reaches altitude 10° 17:28:08 10° 109° (ESE) 2,673 5.8 -9.5°
Maximum altitude 17:31:13 14° 78° (ENE) 2,375 5.4 -10.0°
Enters shadow 17:34:03 11° 50° (NE) 2,649 5.7 -10.5°
